Location: Feydey
(46.3431°N, 7.0106°E)
Time: 04:42:25
(UTC+00:00)

Cosmos 1900 - Visible Passes

Search period start: 17 October 2021 00:00
Search period end: 27 October 2021 00:00
Orbit: 691 x 730 km, 66.1° (Epoch: 16 October)

Date Brightness Start Highest point End Pass type
(mag) Time Alt. Az. Time Alt. Az. Time Alt. Az.
18 Oct 6.9 05:01:48 10° SSE 05:05:43 24° ESE 05:09:37 10° ENE visible
19 Oct 7.7 04:10:12 10° ESE 04:11:19 11° ESE 04:12:26 10° E visible
20 Oct 6.0 04:53:03 10° S 04:57:30 36° ESE 05:01:59 10° NE visible
21 Oct 7.1 03:59:53 10° SSE 04:03:00 17° ESE 04:06:08 10° ENE visible
22 Oct 5.0 04:44:36 10° SSW 04:49:22 56° ESE 04:54:10 10° NE visible
23 Oct 6.4 03:50:45 10° SSE 03:54:45 26° ESE 03:58:47 10° NE visible
24 Oct 7.2 02:58:40 10° SE 03:00:21 12° ESE 03:02:03 10° E visible
24 Oct 4.3 04:36:26 10° SSW 04:41:18 84° ESE 04:46:13 10° NE visible
25 Oct 5.5 03:43:05 16° S 03:46:34 39° ESE 03:51:06 10° NE visible
25 Oct 5.0 05:23:56 10° WSW 05:28:23 34° NW 05:32:51 10° NNE visible
26 Oct 6.6 02:50:54 17° SE 02:52:02 18° ESE 02:55:22 10° ENE visible
26 Oct 4.2 04:30:01 20° SW 04:33:18 66° NW 04:38:11 10° NNE visible
